Voltar ao catálogo

TIANHUI 4A

AtivoCiênciaPO
NORAD 50572·PAYLOAD·🇨🇳 China

Lançado Dec 29, 2021 de Jiuquan Satellite Launch Center

Loading…

Próximas Passagens (próximas 24 horas)

TLE

AtualizadoSource: Space-Track

Época: Sep 14, 2026, 10:15 UTC

1 50572U 21134A   26257.42761059  .00004927  00000-0  94919-4 0  9994
2 50572  88.9686 310.0170 0010969  78.4187 281.8304 15.47558522263661

Acompanhe TIANHUI 4A em tempo real com AllMySat

Download on the App Store